DLH112 LPPT-LEPA

Flight info

Callsign DLH112
Flight time 1h 30m
Altitude 36000
Route ORVED DCT UREDI DCT NVS/N0445F350 DCT NANDO DCT FENXE DCT MABUX DCT RETBA DCT MOPIR DCT LASPO/N0448F360 DCT ORVUS M871 GODOX
Aircraft A321/M-SDE3FGHIRWY/LB1

Departure

Time 2026-05-07 18:31
Airport Lisbon Humberto Delgado Airport (LPPT)

Arrival

Time 2026-05-07 20:02
Airport Palma de Mallorca Airport (LEPA)
Time Latitude Longitude Altitude Speed Heading
2026-05-07 17:46 38.77611 -9.13187 347 ft 0 kts 78°
2026-05-07 18:14 38.77609 -9.13196 347 ft 4 kts 78°
2026-05-07 18:14 38.77604 -9.13230 350 ft 4 kts 79°
2026-05-07 18:15 38.77599 -9.13264 349 ft 4 kts 84°
2026-05-07 18:15 38.77599 -9.13298 353 ft 4 kts 103°
2026-05-07 18:15 38.77607 -9.13320 352 ft 2 kts 175°
2026-05-07 18:15 38.77610 -9.13320 357 ft 0 kts 178°
2026-05-07 18:21 38.77604 -9.13320 352 ft 4 kts 178°
2026-05-07 18:21 38.77532 -9.13306 351 ft 13 kts 168°
2026-05-07 18:21 38.77440 -9.13282 347 ft 14 kts 168°
2026-05-07 18:21 38.77351 -9.13275 347 ft 11 kts 204°
2026-05-07 18:22 38.77319 -9.13365 355 ft 12 kts 256°
2026-05-07 18:22 38.77307 -9.13436 351 ft 13 kts 258°
2026-05-07 18:22 38.77281 -9.13593 347 ft 13 kts 258°
2026-05-07 18:22 38.77264 -9.13698 349 ft 12 kts 258°
2026-05-07 18:23 38.77248 -9.13803 349 ft 9 kts 259°
2026-05-07 18:23 38.77207 -9.13858 353 ft 9 kts 205°
2026-05-07 18:23 38.77144 -9.13892 353 ft 10 kts 203°
2026-05-07 18:23 38.77072 -9.13931 353 ft 12 kts 200°
2026-05-07 18:24 38.76991 -9.13971 350 ft 13 kts 201°
2026-05-07 18:24 38.76903 -9.14020 351 ft 14 kts 204°
2026-05-07 18:24 38.76818 -9.14066 352 ft 11 kts 202°
2026-05-07 18:24 38.76747 -9.14105 349 ft 11 kts 202°
2026-05-07 18:25 38.76707 -9.14126 348 ft 0 kts 202°
2026-05-07 18:25 38.76706 -9.14126 348 ft 0 kts 202°
2026-05-07 18:25 38.76700 -9.14130 355 ft 2 kts 202°
2026-05-07 18:26 38.76684 -9.14138 348 ft 3 kts 202°
2026-05-07 18:26 38.76659 -9.14152 354 ft 5 kts 202°
2026-05-07 18:26 38.76650 -9.14156 351 ft 0 kts 202°
2026-05-07 18:26 38.76650 -9.14157 351 ft 0 kts 202°
2026-05-07 18:27 38.76634 -9.14165 347 ft 7 kts 202°
2026-05-07 18:27 38.76595 -9.14216 345 ft 9 kts 253°
2026-05-07 18:27 38.76601 -9.14257 352 ft 0 kts 292°
2026-05-07 18:29 38.76617 -9.14306 350 ft 13 kts 292°
2026-05-07 18:30 38.76665 -9.14372 340 ft 8 kts 358°
2026-05-07 18:30 38.76696 -9.14359 346 ft 0 kts 21°
2026-05-07 18:30 38.76714 -9.14350 345 ft 18 kts 21°
2026-05-07 18:30 38.77075 -9.14159 352 ft 92 kts 23°
2026-05-07 18:31 38.77864 -9.13744 349 ft 151 kts 21°
2026-05-07 18:31 38.78949 -9.13140 577 ft 178 kts 23°
2026-05-07 18:31 38.80037 -9.12419 1359 ft 176 kts 25°
2026-05-07 18:31 38.81125 -9.11565 1846 ft 194 kts 28°
2026-05-07 18:32 38.82341 -9.10632 2118 ft 214 kts 27°
2026-05-07 18:32 38.83701 -9.09625 2350 ft 236 kts 27°
2026-05-07 18:32 38.85163 -9.08531 2764 ft 251 kts 27°
2026-05-07 18:32 38.86713 -9.07392 3355 ft 261 kts 27°
2026-05-07 18:33 38.88316 -9.06231 3985 ft 268 kts 26°
2026-05-07 18:33 38.89932 -9.04973 4618 ft 277 kts 41°
2026-05-07 18:33 38.91030 -9.02941 5284 ft 280 kts 67°
2026-05-07 18:33 38.91802 -9.00626 6021 ft 283 kts 71°
2026-05-07 18:34 38.92535 -8.98278 6755 ft 285 kts 71°
2026-05-07 18:34 38.93295 -8.95915 7456 ft 288 kts 70°
2026-05-07 18:34 38.94096 -8.93546 8161 ft 291 kts 69°
2026-05-07 18:34 38.94939 -8.91168 8863 ft 294 kts 68°
2026-05-07 18:35 38.95811 -8.88776 9578 ft 297 kts 68°
2026-05-07 18:35 38.96398 -8.87184 10007 ft 299 kts 68°
2026-05-07 18:35 38.97324 -8.84689 10224 ft 320 kts 67°
2026-05-07 18:35 38.98320 -8.82016 10366 ft 341 kts 67°
2026-05-07 18:36 38.99706 -8.78307 10960 ft 351 kts 67°
2026-05-07 18:36 39.00423 -8.76390 11359 ft 353 kts 66°
2026-05-07 18:36 39.01489 -8.73533 11965 ft 356 kts 67°
2026-05-07 18:36 39.02562 -8.70645 12542 ft 360 kts 67°
2026-05-07 18:37 39.03643 -8.67728 13130 ft 363 kts 67°
2026-05-07 18:37 39.04724 -8.64807 13703 ft 367 kts 67°
2026-05-07 18:37 39.05825 -8.61826 14217 ft 370 kts 67°
2026-05-07 18:37 39.06934 -8.58819 14740 ft 373 kts 67°
2026-05-07 18:38 39.08052 -8.55790 15276 ft 376 kts 67°
2026-05-07 18:38 39.09180 -8.52731 15809 ft 379 kts 67°
2026-05-07 18:38 39.10314 -8.49652 16325 ft 382 kts 66°
2026-05-07 18:38 39.11454 -8.46551 16827 ft 385 kts 67°
2026-05-07 18:39 39.12605 -8.43417 17336 ft 388 kts 67°
2026-05-07 18:39 39.13761 -8.40262 17844 ft 391 kts 67°
2026-05-07 18:39 39.14926 -8.37072 18319 ft 394 kts 67°
2026-05-07 18:39 39.16099 -8.33860 18713 ft 398 kts 66°
2026-05-07 18:40 39.17288 -8.30612 19040 ft 404 kts 66°
2026-05-07 18:40 39.18493 -8.27320 19423 ft 408 kts 66°
2026-05-07 18:40 39.19709 -8.23996 19811 ft 411 kts 66°
2026-05-07 18:40 39.20920 -8.20687 20186 ft 415 kts 66°
2026-05-07 18:41 39.22152 -8.17308 20558 ft 418 kts 66°
2026-05-07 18:41 39.23392 -8.13892 20923 ft 422 kts 66°
2026-05-07 18:41 39.24640 -8.10447 21284 ft 426 kts 66°
2026-05-07 18:41 39.25911 -8.06972 21650 ft 430 kts 65°
2026-05-07 18:42 39.27201 -8.03473 22001 ft 433 kts 65°
2026-05-07 18:42 39.28506 -7.99946 22344 ft 437 kts 65°
2026-05-07 18:42 39.29819 -7.96396 22680 ft 441 kts 65°
2026-05-07 18:42 39.31142 -7.92812 23021 ft 444 kts 65°
2026-05-07 18:43 39.32473 -7.89191 23373 ft 447 kts 65°
2026-05-07 18:43 39.33805 -7.85554 23677 ft 450 kts 65°
2026-05-07 18:43 39.35148 -7.81879 23993 ft 453 kts 65°
2026-05-07 18:43 39.36491 -7.78198 24311 ft 455 kts 65°
2026-05-07 18:44 39.37845 -7.74484 24632 ft 457 kts 65°
2026-05-07 18:44 39.39197 -7.70767 24956 ft 459 kts 65°
2026-05-07 18:44 39.40559 -7.67022 25275 ft 461 kts 65°
2026-05-07 18:44 39.41924 -7.63263 25592 ft 463 kts 65°
2026-05-07 18:45 39.43297 -7.59478 25884 ft 465 kts 65°
2026-05-07 18:45 39.44667 -7.55693 26227 ft 466 kts 65°
2026-05-07 18:45 39.46044 -7.51889 26544 ft 467 kts 65°
2026-05-07 18:45 39.47427 -7.48069 26853 ft 470 kts 65°
2026-05-07 18:46 39.48812 -7.44234 27129 ft 472 kts 65°
2026-05-07 18:46 39.50200 -7.40377 27417 ft 474 kts 65°
2026-05-07 18:46 39.51595 -7.36496 27699 ft 476 kts 64°
2026-05-07 18:46 39.52994 -7.32606 27986 ft 478 kts 64°
2026-05-07 18:47 39.54397 -7.28702 28267 ft 480 kts 64°
2026-05-07 18:47 39.55809 -7.24771 28533 ft 482 kts 64°
2026-05-07 18:47 39.57222 -7.20822 28824 ft 484 kts 64°
2026-05-07 18:47 39.58637 -7.16856 29070 ft 487 kts 64°
2026-05-07 18:48 39.60064 -7.12858 29293 ft 490 kts 64°
2026-05-07 18:48 39.61478 -7.08891 29557 ft 492 kts 64°
2026-05-07 18:48 39.62935 -7.04800 29813 ft 494 kts 64°
2026-05-07 18:48 39.64358 -7.00801 30032 ft 496 kts 64°
2026-05-07 18:49 39.65806 -6.96728 30225 ft 498 kts 64°
2026-05-07 18:49 39.67260 -6.92635 30414 ft 500 kts 64°
2026-05-07 18:49 39.68716 -6.88532 30599 ft 502 kts 64°
2026-05-07 18:49 39.70178 -6.84401 30777 ft 504 kts 64°
2026-05-07 18:50 39.71642 -6.80258 30962 ft 505 kts 63°
2026-05-07 18:50 39.73107 -6.76103 31210 ft 505 kts 63°
2026-05-07 18:50 39.74569 -6.71944 31437 ft 506 kts 63°
2026-05-07 18:50 39.76030 -6.67782 31671 ft 506 kts 63°
2026-05-07 18:51 39.77489 -6.63622 31903 ft 506 kts 63°
2026-05-07 18:51 39.78951 -6.59445 32137 ft 507 kts 63°
2026-05-07 18:51 39.80410 -6.55273 32371 ft 507 kts 63°
2026-05-07 18:51 39.81869 -6.51100 32603 ft 507 kts 63°
2026-05-07 18:52 39.83331 -6.46917 32832 ft 508 kts 63°
2026-05-07 18:52 39.84794 -6.42724 33009 ft 509 kts 63°
2026-05-07 18:52 39.86163 -6.38534 33189 ft 512 kts 69°
2026-05-07 18:52 39.87271 -6.34117 33322 ft 514 kts 70°
2026-05-07 18:53 39.88368 -6.29675 33457 ft 516 kts 70°
2026-05-07 18:53 39.89468 -6.25223 33593 ft 517 kts 70°
2026-05-07 18:53 39.90573 -6.20758 33754 ft 518 kts 70°
2026-05-07 18:53 39.91676 -6.16294 33855 ft 520 kts 70°
2026-05-07 18:54 39.92783 -6.11801 33867 ft 523 kts 70°
2026-05-07 18:54 39.95014 -6.02689 33870 ft 531 kts 70°
2026-05-07 18:55 39.97252 -5.93493 33877 ft 533 kts 70°
2026-05-07 18:55 39.99492 -5.84267 33878 ft 534 kts 70°
2026-05-07 18:56 40.01730 -5.75032 33887 ft 534 kts 70°
2026-05-07 18:56 40.03964 -5.65778 33880 ft 534 kts 70°
2026-05-07 18:57 40.06185 -5.56531 33888 ft 534 kts 70°
2026-05-07 18:57 40.08403 -5.47267 33900 ft 534 kts 70°
2026-05-07 18:58 40.10612 -5.38011 33902 ft 534 kts 70°
2026-05-07 18:58 40.12807 -5.28788 33896 ft 534 kts 69°
2026-05-07 18:59 40.14989 -5.19532 33896 ft 531 kts 70°
2026-05-07 18:59 40.17162 -5.10313 33900 ft 531 kts 70°
2026-05-07 19:00 40.19331 -5.01080 33909 ft 531 kts 70°
2026-05-07 19:00 40.21483 -4.91822 33915 ft 533 kts 71°
2026-05-07 19:00 40.22113 -4.87030 33920 ft 539 kts 85°
2026-05-07 19:01 40.21958 -4.82128 33923 ft 541 kts 94°
2026-05-07 19:01 40.21231 -4.72311 33918 ft 541 kts 95°
2026-05-07 19:02 40.20459 -4.62519 33917 ft 541 kts 95°
2026-05-07 19:02 40.19677 -4.52716 33911 ft 543 kts 95°
2026-05-07 19:03 40.18897 -4.42869 33920 ft 545 kts 95°
2026-05-07 19:03 40.18129 -4.33023 33920 ft 545 kts 95°
2026-05-07 19:04 40.17345 -4.23172 33914 ft 544 kts 95°
2026-05-07 19:04 40.16550 -4.13386 33921 ft 545 kts 95°
2026-05-07 19:05 40.15741 -4.03545 33924 ft 545 kts 95°
2026-05-07 19:05 40.14920 -3.93633 33924 ft 545 kts 95°
2026-05-07 19:06 40.14094 -3.83780 33923 ft 545 kts 95°
2026-05-07 19:06 40.12799 -3.68967 33917 ft 548 kts 100°
2026-05-07 19:07 40.11110 -3.59296 33926 ft 549 kts 103°
2026-05-07 19:07 40.09358 -3.49600 33932 ft 549 kts 103°
2026-05-07 19:08 40.07584 -3.39888 33933 ft 550 kts 103°
2026-05-07 19:08 40.05803 -3.30141 33941 ft 553 kts 103°
2026-05-07 19:09 40.04011 -3.20372 33948 ft 553 kts 103°
2026-05-07 19:09 40.02208 -3.10626 33950 ft 553 kts 103°
2026-05-07 19:10 40.00400 -3.00868 33946 ft 554 kts 103°
2026-05-07 19:10 39.98578 -2.91089 33951 ft 555 kts 103°
2026-05-07 19:11 39.96753 -2.81368 33951 ft 555 kts 103°
2026-05-07 19:11 39.94913 -2.71582 33961 ft 555 kts 103°
2026-05-07 19:12 39.93066 -2.61812 33952 ft 556 kts 103°
2026-05-07 19:12 39.91188 -2.51957 33971 ft 557 kts 103°
2026-05-07 19:13 39.89328 -2.42243 33981 ft 557 kts 103°
2026-05-07 19:13 39.87451 -2.32469 33980 ft 557 kts 103°
2026-05-07 19:14 39.85567 -2.22710 33983 ft 555 kts 103°
2026-05-07 19:14 39.83673 -2.12960 33996 ft 555 kts 104°
2026-05-07 19:15 39.80944 -2.03568 33999 ft 555 kts 113°
2026-05-07 19:15 39.77937 -1.94308 34008 ft 556 kts 114°
2026-05-07 19:16 39.74904 -1.85049 33997 ft 556 kts 114°
2026-05-07 19:16 39.71899 -1.75875 34019 ft 555 kts 114°
2026-05-07 19:17 39.68845 -1.66576 34005 ft 555 kts 114°
2026-05-07 19:17 39.65815 -1.57351 34018 ft 556 kts 114°
2026-05-07 19:18 39.62787 -1.48149 33981 ft 552 kts 114°
2026-05-07 19:18 39.59781 -1.39075 33981 ft 551 kts 114°
2026-05-07 19:19 39.56743 -1.29953 33942 ft 551 kts 114°
2026-05-07 19:19 39.53684 -1.20789 33966 ft 556 kts 114°
2026-05-07 19:20 39.50552 -1.11639 33982 ft 554 kts 116°
2026-05-07 19:20 39.47732 -1.04226 33983 ft 550 kts 118°
2026-05-07 19:21 39.44207 -0.95438 33992 ft 549 kts 119°
2026-05-07 19:21 39.40719 -0.86646 33995 ft 549 kts 118°
2026-05-07 19:22 39.37303 -0.77803 34000 ft 550 kts 117°
2026-05-07 19:22 39.33919 -0.68988 33987 ft 546 kts 118°
2026-05-07 19:23 39.30565 -0.60117 33988 ft 552 kts 112°
2026-05-07 19:23 39.28752 -0.50535 33988 ft 550 kts 92°
2026-05-07 19:24 39.28987 -0.40725 33979 ft 547 kts 82°
2026-05-07 19:24 39.29528 -0.30926 33980 ft 547 kts 83°
2026-05-07 19:25 39.30036 -0.21121 33978 ft 547 kts 83°
2026-05-07 19:25 39.30525 -0.11310 33978 ft 547 kts 83°
2026-05-07 19:26 39.31009 -0.01507 33978 ft 547 kts 83°
2026-05-07 19:26 39.31485 0.08260 33972 ft 539 kts 84°
2026-05-07 19:27 39.31715 0.12964 33978 ft 526 kts 83°
2026-05-07 19:27 39.31948 0.17652 33970 ft 522 kts 83°
2026-05-07 19:27 39.32178 0.22316 33846 ft 517 kts 83°
2026-05-07 19:27 39.32402 0.26956 33078 ft 517 kts 84°
2026-05-07 19:28 39.32623 0.31577 32496 ft 514 kts 84°
2026-05-07 19:28 39.32840 0.36170 31960 ft 510 kts 84°
2026-05-07 19:28 39.33053 0.40723 31496 ft 503 kts 85°
2026-05-07 19:28 39.33255 0.45174 30818 ft 492 kts 85°
2026-05-07 19:29 39.33451 0.49549 30025 ft 483 kts 85°
2026-05-07 19:29 39.33647 0.53848 29106 ft 475 kts 85°
2026-05-07 19:29 39.33839 0.58052 28331 ft 463 kts 86°
2026-05-07 19:29 39.34024 0.62152 27607 ft 451 kts 86°
2026-05-07 19:30 39.34201 0.66151 27322 ft 441 kts 86°
2026-05-07 19:30 39.34371 0.70054 27057 ft 430 kts 87°
2026-05-07 19:30 39.34534 0.73877 26774 ft 421 kts 87°
2026-05-07 19:30 39.34696 0.77638 26382 ft 416 kts 88°
2026-05-07 19:31 39.34855 0.81337 25980 ft 410 kts 88°
2026-05-07 19:31 39.35012 0.84982 25584 ft 404 kts 89°
2026-05-07 19:31 39.35165 0.88583 25189 ft 398 kts 89°
2026-05-07 19:31 39.35314 0.92133 24769 ft 394 kts 89°
2026-05-07 19:32 39.35459 0.95604 24390 ft 389 kts 90°
2026-05-07 19:32 39.35603 0.99116 23964 ft 385 kts 90°
2026-05-07 19:32 39.35743 1.02554 23553 ft 381 kts 90°
2026-05-07 19:32 39.35881 1.05908 23086 ft 376 kts 90°
2026-05-07 19:33 39.36017 1.09257 22655 ft 371 kts 90°
2026-05-07 19:33 39.36152 1.12556 22255 ft 365 kts 89°
2026-05-07 19:33 39.36283 1.15811 21829 ft 360 kts 89°
2026-05-07 19:33 39.36409 1.19022 21430 ft 355 kts 89°
2026-05-07 19:34 39.36531 1.22194 21016 ft 351 kts 89°
2026-05-07 19:34 39.36656 1.25329 20611 ft 347 kts 89°
2026-05-07 19:34 39.36779 1.28431 20196 ft 344 kts 89°
2026-05-07 19:34 39.36895 1.31499 19788 ft 341 kts 89°
2026-05-07 19:35 39.37012 1.34545 19381 ft 338 kts 89°
2026-05-07 19:35 39.37129 1.37563 18992 ft 335 kts 89°
2026-05-07 19:35 39.37249 1.40557 18593 ft 333 kts 87°
2026-05-07 19:35 39.37582 1.43508 18194 ft 331 kts 82°
2026-05-07 19:36 39.37970 1.46430 17753 ft 328 kts 82°
2026-05-07 19:36 39.38353 1.49315 17365 ft 324 kts 82°
2026-05-07 19:36 39.38732 1.52178 16981 ft 321 kts 82°
2026-05-07 19:36 39.39103 1.55004 16600 ft 318 kts 82°
2026-05-07 19:37 39.39469 1.57806 16214 ft 314 kts 82°
2026-05-07 19:37 39.39834 1.60576 15838 ft 312 kts 82°
2026-05-07 19:37 39.40195 1.63326 15464 ft 309 kts 82°
2026-05-07 19:37 39.40551 1.66055 15084 ft 306 kts 82°
2026-05-07 19:38 39.40904 1.68762 14719 ft 304 kts 82°
2026-05-07 19:38 39.41256 1.71454 14353 ft 302 kts 82°
2026-05-07 19:38 39.41604 1.74124 13981 ft 300 kts 82°
2026-05-07 19:38 39.41948 1.76782 13599 ft 299 kts 82°
2026-05-07 19:39 39.42288 1.79425 13218 ft 296 kts 82°
2026-05-07 19:39 39.42618 1.81998 12865 ft 292 kts 81°
2026-05-07 19:39 39.42955 1.84609 12511 ft 289 kts 81°
2026-05-07 19:39 39.43284 1.87162 12162 ft 286 kts 81°
2026-05-07 19:40 39.43605 1.89652 11821 ft 283 kts 81°
2026-05-07 19:40 39.43924 1.92148 11482 ft 280 kts 81°
2026-05-07 19:40 39.44235 1.94614 11202 ft 274 kts 80°
2026-05-07 19:40 39.44538 1.97016 10981 ft 267 kts 80°
2026-05-07 19:41 39.44836 1.99368 10730 ft 263 kts 80°
2026-05-07 19:41 39.45131 2.01699 10490 ft 262 kts 79°
2026-05-07 19:41 39.45586 2.03962 10254 ft 259 kts 70°
2026-05-07 19:41 39.46174 2.06167 10009 ft 258 kts 70°
2026-05-07 19:42 39.46757 2.08360 9847 ft 258 kts 70°
2026-05-07 19:42 39.47338 2.10555 9664 ft 258 kts 70°
2026-05-07 19:42 39.47913 2.12739 9381 ft 256 kts 70°
2026-05-07 19:42 39.48485 2.14916 9076 ft 254 kts 70°
2026-05-07 19:43 39.49051 2.17073 8764 ft 253 kts 70°
2026-05-07 19:43 39.49650 2.19209 8457 ft 255 kts 62°
2026-05-07 19:43 39.50825 2.20995 8146 ft 265 kts 34°
2026-05-07 19:43 39.52520 2.21830 7844 ft 262 kts
2026-05-07 19:44 39.54271 2.21497 7595 ft 259 kts 337°
2026-05-07 19:44 39.55632 2.20109 7459 ft 244 kts 307°
2026-05-07 19:44 39.56214 2.18128 7256 ft 234 kts 275°
2026-05-07 19:44 39.55919 2.16088 6893 ft 233 kts 242°
2026-05-07 19:45 39.54960 2.14447 6686 ft 225 kts 239°
2026-05-07 19:45 39.54393 2.12603 6389 ft 220 kts 258°
2026-05-07 19:45 39.53971 2.10654 6417 ft 234 kts 254°
2026-05-07 19:45 39.53468 2.08766 7658 ft 203 kts 250°
2026-05-07 19:46 39.52979 2.07209 8244 ft 186 kts 249°
2026-05-07 19:46 39.52429 2.05287 7863 ft 255 kts 251°
2026-05-07 19:46 39.51916 2.02842 7797 ft 306 kts 260°
2026-05-07 19:46 39.51371 1.99988 7696 ft 347 kts 248°
2026-05-07 19:47 39.50003 1.97230 7535 ft 383 kts 227°
2026-05-07 19:47 39.47810 1.95064 7427 ft 412 kts 207°
2026-05-07 19:47 39.45275 1.93532 7638 ft 396 kts 204°
2026-05-07 19:47 39.42833 1.92541 7884 ft 332 kts 180°
2026-05-07 19:48 39.40783 1.93132 7713 ft 291 kts 147°
2026-05-07 19:48 39.39661 1.95053 7615 ft 258 kts 104°
2026-05-07 19:48 39.39585 1.97239 7519 ft 242 kts 81°
2026-05-07 19:48 39.39556 1.99359 7414 ft 232 kts 103°
2026-05-07 19:49 39.38994 2.01253 7290 ft 220 kts 111°
2026-05-07 19:49 39.38378 2.02976 7070 ft 205 kts 112°
2026-05-07 19:49 39.37773 2.04626 6599 ft 202 kts 112°
2026-05-07 19:49 39.37169 2.06255 6115 ft 200 kts 112°
2026-05-07 19:50 39.36570 2.07858 5893 ft 194 kts 112°
2026-05-07 19:50 39.35987 2.09420 5617 ft 192 kts 112°
2026-05-07 19:50 39.35417 2.10962 5326 ft 189 kts 112°
2026-05-07 19:50 39.34858 2.12490 5031 ft 186 kts 112°
2026-05-07 19:51 39.34304 2.14008 5006 ft 188 kts 112°
2026-05-07 19:51 39.33745 2.15534 5006 ft 189 kts 112°
2026-05-07 19:51 39.33371 2.17133 5008 ft 186 kts 90°
2026-05-07 19:51 39.33427 2.18804 5006 ft 187 kts 83°
2026-05-07 19:52 39.33556 2.20473 5003 ft 186 kts 82°
2026-05-07 19:52 39.33689 2.22129 5006 ft 186 kts 82°
2026-05-07 19:52 39.33825 2.23787 5006 ft 185 kts 82°
2026-05-07 19:52 39.33957 2.25437 5005 ft 185 kts 82°
2026-05-07 19:53 39.34088 2.27088 5012 ft 185 kts 82°
2026-05-07 19:53 39.34208 2.28740 5010 ft 184 kts 82°
2026-05-07 19:53 39.34469 2.30348 5007 ft 184 kts 59°
2026-05-07 19:53 39.35446 2.31392 5010 ft 186 kts 30°
2026-05-07 19:54 39.36402 2.32481 5001 ft 187 kts 61°
2026-05-07 19:54 39.36965 2.33971 5015 ft 186 kts 58°
2026-05-07 19:54 39.37666 2.35354 5000 ft 182 kts 57°
2026-05-07 19:54 39.38358 2.36750 5008 ft 185 kts 57°
2026-05-07 19:55 39.39044 2.38168 5008 ft 187 kts 58°
2026-05-07 19:55 39.39726 2.39590 5008 ft 185 kts 58°
2026-05-07 19:55 39.40401 2.41000 5008 ft 184 kts 58°
2026-05-07 19:55 39.41076 2.42411 4977 ft 185 kts 58°
2026-05-07 19:56 39.41752 2.43827 4805 ft 185 kts 58°
2026-05-07 19:56 39.42425 2.45235 4586 ft 183 kts 58°
2026-05-07 19:56 39.43093 2.46633 4336 ft 182 kts 58°
2026-05-07 19:56 39.43757 2.48026 4093 ft 182 kts 59°
2026-05-07 19:57 39.44423 2.49420 3845 ft 182 kts 59°
2026-05-07 19:57 39.45084 2.50808 3602 ft 180 kts 58°
2026-05-07 19:57 39.45739 2.52182 3378 ft 179 kts 59°
2026-05-07 19:57 39.46394 2.53556 3133 ft 179 kts 59°
2026-05-07 19:58 39.47047 2.54927 2890 ft 179 kts 59°
2026-05-07 19:58 39.47697 2.56291 2675 ft 177 kts 59°
2026-05-07 19:58 39.48342 2.57648 2421 ft 177 kts 59°
2026-05-07 19:58 39.48988 2.59006 2168 ft 177 kts 59°
2026-05-07 19:59 39.49629 2.60355 1942 ft 176 kts 58°
2026-05-07 19:59 39.50267 2.61697 1705 ft 174 kts 58°
2026-05-07 19:59 39.50901 2.63032 1464 ft 173 kts 58°
2026-05-07 19:59 39.51526 2.64346 1228 ft 166 kts 59°
2026-05-07 20:00 39.52090 2.65536 1014 ft 148 kts 57°
2026-05-07 20:00 39.52612 2.66637 826 ft 140 kts 58°
2026-05-07 20:00 39.53112 2.67690 654 ft 135 kts 56°
2026-05-07 20:00 39.53608 2.68737 471 ft 135 kts 56°
2026-05-07 20:01 39.54105 2.69785 301 ft 140 kts 58°
2026-05-07 20:01 39.54603 2.70836 120 ft 135 kts 58°
2026-05-07 20:01 39.55075 2.71833 37 ft 116 kts 58°
2026-05-07 20:01 39.55357 2.72431 38 ft 57 kts 58°
2026-05-07 20:02 39.55476 2.72715 38 ft 19 kts 72°
2026-05-07 20:02 39.55496 2.72888 38 ft 20 kts 87°
2026-05-07 20:02 39.55500 2.73026 38 ft 7 kts 88°
2026-05-07 20:02 39.55500 2.73033 38 ft 1 kts 88°
2026-05-07 20:03 39.55501 2.73070 38 ft 9 kts 88°
2026-05-07 20:03 39.55505 2.73157 38 ft 11 kts 81°
2026-05-07 20:03 39.55539 2.73253 37 ft 13 kts 60°
2026-05-07 20:03 39.55587 2.73358 38 ft 14 kts 59°
2026-05-07 20:04 39.55625 2.73468 38 ft 12 kts 91°
2026-05-07 20:04 39.55567 2.73543 38 ft 12 kts 148°
2026-05-07 20:04 39.55494 2.73554 36 ft 12 kts 232°
2026-05-07 20:04 39.55445 2.73460 37 ft 13 kts 221°
2026-05-07 20:05 39.55365 2.73490 38 ft 13 kts 149°
2026-05-07 20:05 39.55280 2.73555 38 ft 15 kts 149°
2026-05-07 20:05 39.55197 2.73620 38 ft 10 kts 149°
2026-05-07 20:05 39.55136 2.73603 37 ft 11 kts 234°
2026-05-07 20:06 39.55109 2.73548 38 ft 11 kts 237°
2026-05-07 20:06 39.55093 2.73516 38 ft 0 kts 229°
2026-05-07 20:06 39.55091 2.73516 38 ft 0 kts 210°
2026-05-07 20:06 39.55077 2.73524 38 ft 4 kts 155°
2026-05-07 20:07 39.55053 2.73532 38 ft 2 kts 163°
2026-05-07 20:07 39.55045 2.73535 38 ft 0 kts 164°